Regional Weather Roundup
Issued by NWS Bismarck, ND

Home | Current Version | Previous Version | Text Only | Print | Product List | Glossary On
Versions: 1 2 3 4 5 6 7 8 9 10 11 12 13 14 15 16 17 18 19 20 21 22 23 24 25 26 27 28 29 30 31 32 33 34 35 36 37 38 39 40 41 42 43 44 45 46 47 48 49 50
000
ASUS43 KBIS 201910
RWRBIS

NWR BROADCAST TEXT
NATIONAL WEATHER SERVICE BISMARCK ND
200 PM CDT MON OCT 20 2014

NOTE: "FAIR" INDICATES FEW OR NO CLOUDS BELOW 12,000 FEET WITH NO
SIGNIFICANT WEATHER AND/OR OBSTRUCTIONS TO VISIBILITY.


CITY           SKY/WX    TMP DP  RH WIND       PRES   REMARKS
WILLISTON      SUNNY     74  40  29 SE13      29.89F
MINOT          SUNNY     69  36  29 S17       29.96F
MINOT AFB      SUNNY     70  36  29 S20G25    29.94F
BISMARCK       SUNNY     72  34  24 S13G23    30.01F
DICKINSON      SUNNY     71  41  33 S22       29.94F
GARRISON         N/A     69  39  33 S15       29.97F
HETTINGER ARPT SUNNY     70  39  32 S16G23    29.98F
JAMESTOWN      SUNNY     65  40  39 E3        30.03F
BEACH            N/A     72  39  30 S18       29.92F
CARRINGTON     FAIR      66  39  37 S5        30.02F
CROSBY         FAIR      72  41  33 S17       29.89F
HARVEY         FAIR      72  36  26 SW12      29.99F
HAZEN          FAIR      68  39  34 S17G23    29.97F
LINTON         FAIR      68  37  32 S15G22    30.03F
MANDAN         FAIR      68  37  32 S14G20    30.01F
OAKES            N/A     66  41  39 SW5       30.04F
RUGBY          FAIR      64  41  42 S8        29.99F
STANLEY        FAIR      66  39  37 S20G28    29.93F
TIOGA          FAIR      70  37  30 S18G25    29.94F
$$

CITY           SKY/WX    TMP DP  RH WIND       PRES   REMARKS
GRAND FORKS    SUNNY     56  42  59 NE6       30.05F
GRAND FORKS AF SUNNY     56  44  62 NE5       30.06F
DEVILS LAKE    SUNNY     61  43  51 S9        30.00F
FARGO          SUNNY     61  44  53 N8        30.04F
CANDO          FAIR      63  45  51 S10       30.01F
CAVALIER       FAIR      52  41  66 E5        30.05F
GRAFTON        FAIR      54  41  62 NE3       30.05F
GWINNER        CLEAR     64  43  45 CALM      30.06F
LANGDON        FAIR      64  41  42 SE7       30.02F
ROLLA          FAIR      63  39  42 S10       30.00F
WALHALLA         N/A     48  46  93 E7        30.05F
$$

CITY           SKY/WX    TMP DP  RH WIND       PRES   REMARKS
ABERDEEN       SUNNY     70  37  29 CALM      30.05F
MOBRIDGE       SUNNY     70  37  29 S16       30.01F
BUFFALO          N/A     73  41  31 SE15      29.89F
RAPID CITY     SUNNY     72  42  34 SE17      29.98F
GLASGOW        SUNNY     64  42  44 SE9       29.83F
SIDNEY         SUNNY     73  43  33 S14       29.89F
WOLF POINT     SUNNY     70  45  40 E7        29.85F
GLENDIVE       SUNNY     68  43  40 S10       29.91F
MILES CITY     SUNNY     69  41  36 S5        29.89F
BAKER          SUNNY     72  42  34 S15       29.93F
$$

CITY           SKY/WX    TMP DP  RH WIND       PRES   REMARKS
BILLINGS       SUNNY     72  32  23 S12       29.92F
GREAT FALLS    SUNNY     75  32  20 S12       29.82F
REGINA         MOSUNNY   70  45  40 S13       29.80F
ESTEVAN        MOSUNNY   72  41  33 S13G18    29.88F
$$




USA.gov is the U.S. government's official web portal to all federal, state and local government web resources and services.